Satellite: NOAA-17
Catalog number: 27453
Epoch time:      12222.75802113
Element set:     795
Inclination:      098.3338 deg
RA of node:       247.0842 deg
Eccentricity:    0.0011825
Arg of perigee:   004.9182 deg
Mean anomaly:     355.2099 deg
Mean motion:   14.24467758 rev/day
Decay rate:        9.5e-07 rev/day^2
Epoch rev:           52638
Checksum:              318

Satellite: NOAA-18
Catalog number: 28654
Epoch time:      12222.71970645
Element set:     277
Inclination:      099.0508 deg
RA of node:       181.2664 deg
Eccentricity:    0.0014524
Arg of perigee:   008.0146 deg
Mean anomaly:     352.1241 deg
Mean motion:   14.11684408 rev/day
Decay rate:       3.70e-06 rev/day^2
Epoch rev:           37211
Checksum:              281

Satellite: NOAA-19
Catalog number: 33591
Epoch time:      12222.73958278
Element set:     466
Inclination:      098.8653 deg
RA of node:       161.8708 deg
Eccentricity:    0.0013264
Arg of perigee:   228.4095 deg
Mean anomaly:     131.5936 deg
Mean motion:   14.11371569 rev/day
Decay rate:       4.86e-06 rev/day^2
Epoch rev:           18056
Checksum:              335

/EX
SB KEPS @ AMSAT  $ORB12222.M
Orbital Elements  12222.MISC

HR AMSAT ORBITAL ELEMENTS FOR MANNED AND MISCELLANEOUS SATELLITES
FROM WA5QGD FORT WORTH,TX August 9, 2012
Send SUBSCRIBE KEPS/UNSUBSCRIBE KEPS to majordomo@amsat.org only
BID: ORB12222.M
TO ALL RADIO AMATEURS BT

Satellite: HUBBLE
Catalog number: 20580
Epoch time:      12222.92411702
Element set:      50
Inclination:      028.4700 deg
RA of node:       151.8440 deg
Eccentricity:    0.0003341
Arg of perigee:   264.1374 deg
Mean anomaly:     095.9116 deg
Mean motion:   15.02677623 rev/day
Decay rate:      1.816e-05 rev/day^2
Epoch rev:            2282
Checksum:              245

Satellite: ISS
Catalog number: 25544
Epoch time:      12223.04705280
Element set:      89
Inclination:      051.6415 deg
RA of node:       213.3468 deg
Eccentricity:    0.0001411
Arg of perigee:   041.6981 deg
Mean anomaly:     064.8786 deg
Mean motion:   15.55053409 rev/day
Decay rate:     1.0706e-04 rev/day^2
Epoch rev:           78639
Checksum:              288

Satellite: CO-58
Catalog number: 28895
Epoch time:      12222.58353263
Element set:     246
Inclination:      097.9039 deg
RA of node:       086.4907 deg
Eccentricity:    0.0017174
Arg of perigee:   347.4111 deg
Mean anomaly:     012.6686 deg
Mean motion:   14.60701140 rev/day
Decay rate:       6.86e-06 rev/day^2
Epoch rev:           36145
Checksum:              315

Satellite: FALCON
Catalog number: 30776
Epoch time:      12221.70096543
Element set:    0424
Inclination:      035.4342 deg
RA of node:       316.0074 deg
Eccentricity:    0.0001521
Arg of perigee:   108.9406 deg
Mean anomaly:     251.1477 deg
Mean motion:   15.07902286 rev/day
Decay rate:      4.492e-05 rev/day^2
Epoch rev:           29818
Checksum:              276

Satellite: MAST
Catalog number: 31126
Epoch time:      12221.92915517
Element set:    0527
Inclination:      097.8738 deg
RA of node:       229.9464 deg
Eccentricity:    0.0093058
Arg of perigee:   306.9403 deg
Mean anomaly:     052.3308 deg
Mean motion:   14.54221016 rev/day
Decay rate:       6.13e-06 rev/day^2
Epoch rev:           28193
Checksum:              291

Satellite: CAPE1
Catalog number: 31130
Epoch time:      12221.94016685
Element set:    0541
Inclination:      097.8816 deg
RA of node:       226.3098 deg
Eccentricity:    0.0099973
Arg of perigee:   320.5151 deg
Mean anomaly:     038.8790 deg
Mean motion:   14.53020599 rev/day
Decay rate:       8.70e-06 rev/day^2
Epoch rev:           28143
Checksum:              304

Satellite: COMPASS
Catalog number: 32787
Epoch time:      12221.72581563
Element set:    0378
Inclination:      097.7954 deg
RA of node:       281.8934 deg
Eccentricity:    0.0014012
Arg of perigee:   248.2585 deg
Mean anomaly:     111.7152 deg
Mean motion:   14.84185808 rev/day
Decay rate:      1.987e-05 rev/day^2
Epoch rev:           23160
Checksum:              318

Satellite: AAUSAT2
Catalog number: 32788
Epoch time:      12221.61638226
Element set:    0370
Inclination:      097.7970 deg
RA of node:       282.1972 deg
Eccentricity:    0.0013310
Arg of perigee:   247.8545 deg
Mean anomaly:     112.1258 deg
Mean motion:   14.84524851 rev/day
Decay rate:      2.553e-05 rev/day^2
Epoch rev:           23161
Checksum:              293

Satellite: DO-64
Catalog number: 32789
Epoch time:      12221.67637513
Element set:    0386
Inclination:      097.8082 deg
RA of node:       284.4828 deg
Eccentricity:    0.0013513
Arg of perigee:   242.9135 deg
Mean anomaly:     117.0700 deg
Mean motion:   14.86140648 rev/day
Decay rate:      4.043e-05 rev/day^2
Epoch rev:           23167
Checksum:              308

Satellite: CO-66
Catalog number: 32791
Epoch time:      12221.73666672
Element set:    0369
Inclination:      097.7940 deg
RA of node:       281.6030 deg
Eccentricity:    0.0014321
Arg of perigee:   244.8068 deg
Mean anomaly:     115.1667 deg
Mean motion:   14.83571748 rev/day
Decay rate:      1.910e-05 rev/day^2
Epoch rev:           23153
Checksum:              311

